[[{"header":{"parameterUnit":"m.s-1","parameterCategory":1,"la1":30.2991,"la2":30.254,"lo1":-89.0895,"lo2":-89.0444,"dy":0.0017,"dx":0.0017,"nx":28,"ny":28,"refTime":"2023-10-11T09:00:00:Z","depth":0,"parameterNumber":2,"parameterNumberName":"U-component_of_WINDS"},"data":[0,0,0,0,0,0,0,0,0,0,0,0,0,0,0,0,0,0,0,0,0,0,0,0,0,0,0,0,0,0,0,0,0,0,0,0,0,0,0,0,0,0,0,0,0,0,0,0,0,0,0,0,0,0,0,0,0,0,-6.6737,-6.6737,0,-6.6796,-6.6797,-6.6798,-6.6629,-6.6624,-6.6619,-6.6614,-6.6674,-6.668,-6.6687,0,0,0,0,0,0,0,0,0,0,0,0,0,-6.6476,-6.6482,-6.6737,-6.6737,-6.6738,-6.6796,-6.6797,-6.6798,-6.663,-6.6624,-6.6618,-6.6612,-6.6672,-6.668,-6.6687,0,0,0,0,0,0,0,0,0,0,0,0,0,-6.6568,-6.6484,-6.6737,-6.6662,-6.6655,-6.6796,-6.6797,-6.6798,-6.6632,-6.6624,-6.6616,-6.6609,-6.667,-6.6679,-6.6688,-6.6904,0,0,-6.6718,-6.6722,0,0,0,0,0,0,0,0,-6.6563,-6.6578,-6.6672,-6.6667,-6.666,-6.6697,-6.6727,-6.6834,-6.6634,-6.6641,-6.6614,-6.6605,-6.6688,-6.6696,-6.6724,-6.6907,-6.6909,-6.6719,-6.6725,-6.6729,-6.6732,0,0,0,0,0,0,0,-6.6557,-6.6574,-6.676,-6.6673,-6.6666,-6.6624,-6.6629,-6.6746,-6.6707,-6.6639,-6.6627,-6.6637,-6.6683,-6.6715,-6.6724,-6.691,-6.6719,-6.6727,-6.6733,-6.6737,-6.7272,-6.728,0,0,0,0,0,0,-6.656,-6.657,-6.6758,-6.6762,-6.6592,-6.6635,-6.664,-6.6693,-6.6706,-6.67,-6.6643,-6.6629,-6.6702,-6.6713,-6.6726,-6.6979,-6.6729,-6.6738,-6.6743,-6.7264,-6.7274,-6.7283,0,0,0,0,0,0,-6.6555,-6.6579,-6.6756,-6.6663,-6.6682,-6.6648,-6.6709,-6.6699,-6.673,-6.6709,-6.6701,-6.6683,-6.6697,-6.6712,-6.6861,-6.6978,-6.6742,-6.6751,-6.7254,-6.7267,-6.7279,-6.7487,0,0,0,0,0,0,-6.6549,-6.6578,-6.666,-6.6666,-6.6688,-6.6891,-6.6716,-6.6705,-6.6747,-6.6729,-6.6744,-6.6739,-6.6692,-6.6847,-6.6871,-6.6987,-6.6759,-6.7243,-6.726,-6.7275,-6.7469,-6.7505,-6.7536,0,0,0,0,0,-6.654,-6.6716,-6.6665,-6.6689,-6.679,-6.6898,-6.6911,-6.6853,-6.6758,-6.6839,-6.6825,-6.6738,-6.6962,-6.6864,-6.6889,-6.701,-6.7236,-6.7255,-6.7273,-6.7454,-6.7498,-6.7535,0,0,0,0,0,0,-6.6725,-6.6716,-6.6659,-6.6842,-6.6873,-6.687,-6.6971,-6.6901,-6.6959,-6.6939,-6.6865,-6.687,-6.7033,-6.7036,-6.6927,-6.7219,-6.7082,-6.7107,-6.7211,-6.7253,-6.7285,-6.7281,-6.6767,0,0,0,0,0,-6.6787,-6.6876,-6.6863,-6.7026,-6.7044,-6.7006,-6.7051,-6.7004,-6.7032,-6.7044,-6.7041,-6.7071,-6.7148,-6.72,-6.727,-6.7469,-6.7469,-6.7564,-6.7598,-6.7625,-6.7647,-6.7752,-6.7795,-6.7345,-6.7345,-6.7345,0,0,-6.6916,-6.6922,-6.6983,-6.7064,-6.7081,-6.7175,-6.7018,-6.7124,-6.7192,-6.706,-6.72,-6.72,-6.7228,-6.7403,-6.748,-6.7411,-6.7771,-6.7649,-6.7671,-6.7678,-6.7776,-6.7819,-6.7857,-6.7358,-6.7356,-6.7354,0,0,-6.7199,-6.7213,-6.735,-6.7372,-6.7401,-6.7374,-6.7407,-6.7415,-6.741,-6.7549,-6.7452,-6.7532,-6.7666,-6.7691,-6.7721,-6.8014,-6.7936,-6.8038,-6.8212,-6.8315,-6.8351,-6.8382,-6.8486,-6.8525,-6.8061,-6.8061,-6.8062,0,-6.7356,-6.7494,-6.743,-6.7543,-6.7581,-6.7466,-6.7604,-6.7627,-6.7678,-6.7707,-6.7628,-6.7794,-6.7805,-6.7984,-6.8056,-6.8084,-6.8119,-6.8037,-6.8351,-6.8381,-6.8409,-6.8508,-6.8548,-6.8074,-6.8072,-6.8071,-6.807,0,-6.7686,-6.7783,-6.789,-6.7942,-6.7992,-6.8118,-6.8072,-6.813,-6.8079,-6.8061,-6.8204,-6.8214,-6.8283,-6.8322,-6.8273,-6.8494,-6.8451,-6.8363,-6.8224,-6.8466,-6.8557,-6.8595,-6.8091,-6.8087,-6.8083,-6.808,0,0,-6.8088,-6.8102,-6.8143,-6.8165,-6.8189,-6.8262,-6.8382,-6.845,-6.8502,-6.854,-6.8639,-6.8755,-6.8674,-6.8708,-6.8661,-6.8752,-6.8983,-6.8653,-6.8652,-6.8714,-6.9228,-6.9294,-6.9339,-6.8931,-6.8938,-6.8944,-6.9225,0,-6.8367,-6.8573,-6.8518,-6.8723,-6.8812,-6.8703,-6.8807,-6.8833,-6.8819,-6.8892,-6.8875,-6.8959,-6.8846,-6.8866,-6.8951,-6.8937,-6.9085,-6.8916,-6.9022,-6.9027,-6.9019,-6.9386,-6.9457,-6.9722,-6.9261,-6.9267,-6.9271,0,-6.8721,-6.8773,-6.8988,-6.8996,-6.9032,-6.9127,-6.9184,-6.9255,-6.9282,-6.9265,-6.9304,-6.9238,-6.9356,-6.9216,-6.9377,-6.9263,-6.9303,-6.9303,-6.9311,-6.9319,-6.9164,-6.9405,-6.9805,-6.9845,-6.9327,-6.9322,-6.9318,0,-6.8993,-6.9117,-6.9261,-6.9283,-6.9297,-6.9366,-6.9375,-6.9394,-6.9439,-6.9489,-6.9517,-6.9581,-6.9616,-6.9667,-6.962,-6.9522,-6.9788,-6.9644,-6.9777,-6.9779,-6.9838,-6.9835,-7.0251,-6.9864,-6.9864,-6.9863,-6.9862,0,-6.9311,-6.9446,-6.9383,-6.9472,-6.9621,-6.9556,-6.9704,-6.97,-6.9718,-6.9804,-6.9714,-6.9796,-6.9729,-6.9806,-6.977,-6.9908,-6.9925,-6.9914,-6.9903,-6.9923,-6.9924,-6.9948,-6.9928,-6.9873,-6.9871,-6.9869,-6.9867,0,-6.964,-6.9603,-6.9753,-6.9754,-6.9757,-6.9867,-6.9867,-6.9949,-6.9928,-7.0037,-7.0059,-7.0027,-7.0112,-7.007,-7.0159,-7.0134,-7.0314,-7.0277,-7.0305,-7.0296,-7.0431,-7.0419,-7.0877,-7.0934,-7.0511,-7.0515,-7.0518,0,-6.9845,-6.9947,-6.9958,-7.001,-7.0025,-7.0109,-7.0153,-7.0094,-7.0144,-7.0182,-7.026,-7.0337,-7.0396,-7.0537,-7.0521,-7.0588,-7.0553,-7.0709,-7.0563,-7.0579,-7.0556,-7.055,-7.056,-7.0739,-7.0744,-7.0748,-7.0751,0,-7.0214,-7.019,-7.0259,-7.0322,-7.0378,-7.0425,-7.0463,-7.051,-7.0451,-7.0513,-7.0599,-7.0645,-7.0735,-7.0814,-7.0872,-7.088,-7.0807,-7.0797,-7.0831,-7.0852,-7.0864,-7.086,-7.0385,-7.0787,-7.0783,-7.0781,-7.0779,-7.0777,-7.0487,-7.0572,-7.0594,-7.0673,-7.0696,-7.0734,-7.0811,-7.08,-7.0871,-7.094,-7.09,-7.1002,-7.1025,-7.1096,-7.1114,-7.1192,-7.113,-7.118,-7.1192,-7.1206,-7.1224,-7.0852,-7.1202,-7.1201,-7.12,-7.1199,-7.1199,0,-7.0851,-7.0859,-7.0933,-7.099,-7.1053,-7.0978,-7.1016,-7.1074,-7.1164,-7.1192,-7.1252,-7.1351,-7.1426,-7.1416,-7.1485,-7.1549,-7.1517,-7.1569,-7.1564,-7.1567,-7.1276,-7.1239,-7.1594,-7.1594,-7.1594,-7.1594,-7.1594,-7.1594,-7.1047,-7.1187,-7.1167,-7.1318,-7.1325,-7.1423,-7.1452,-7.1487,-7.1509,-7.1624,-7.1686,-7.1679,-7.1692,-7.1761,-7.1827,-7.1821,-7.1851,-7.1916,-7.1899,-7.1627,-7.1588,-7.155,-7.1516,-7.1923,-7.1923,-7.2183,-7.2186,-7.2188]},{"header":{"parameterUnit":"m.s-1","parameterCategory":1,"la1":30.2991,"la2":30.254,"lo1":-89.0895,"lo2":-89.0444,"dy":0.0017,"dx":0.0017,"nx":28,"ny":28,"refTime":"2023-10-11T09:00:00:Z","depth":0,"parameterNumber":3,"parameterNumberName":"V-component_of_WINDS"},"data":[0,0,0,0,0,0,0,0,0,0,0,0,0,0,0,0,0,0,0,0,0,0,0,0,0,0,0,0,0,0,0,0,0,0,0,0,0,0,0,0,0,0,0,0,0,0,0,0,0,0,0,0,0,0,0,0,0,0,-1.6631,-1.663,0,-1.6489,-1.6487,-1.6486,-1.6449,-1.645,-1.6451,-1.6452,-1.6301,-1.6296,-1.6291,0,0,0,0,0,0,0,0,0,0,0,0,0,-1.6864,-1.686,-1.6632,-1.663,-1.6628,-1.6489,-1.6487,-1.6485,-1.6449,-1.645,-1.6452,-1.6453,-1.6302,-1.6297,-1.6291,0,0,0,0,0,0,0,0,0,0,0,0,0,-1.6747,-1.6859,-1.6632,-1.6593,-1.6589,-1.649,-1.6487,-1.6485,-1.6449,-1.645,-1.6452,-1.6453,-1.6304,-1.6297,-1.629,-1.6218,0,0,-1.6268,-1.6265,0,0,0,0,0,0,0,0,-1.6753,-1.6738,-1.6601,-1.6596,-1.659,-1.6489,-1.6514,-1.6395,-1.6449,-1.6502,-1.6452,-1.6454,-1.6362,-1.635,-1.632,-1.6211,-1.6204,-1.6267,-1.6263,-1.6259,-1.6257,0,0,0,0,0,0,0,-1.6762,-1.6744,-1.6575,-1.6599,-1.6592,-1.6581,-1.6565,-1.6491,-1.6426,-1.6497,-1.6494,-1.6478,-1.6359,-1.6327,-1.6316,-1.6202,-1.6267,-1.6261,-1.6256,-1.6253,-1.602,-1.6018,0,0,0,0,0,0,-1.6777,-1.6751,-1.6579,-1.6571,-1.6677,-1.6575,-1.6558,-1.652,-1.6427,-1.6414,-1.6477,-1.6477,-1.6339,-1.6325,-1.6311,-1.6215,-1.626,-1.6253,-1.6248,-1.6021,-1.6019,-1.6017,0,0,0,0,0,0,-1.6782,-1.6762,-1.6585,-1.666,-1.6637,-1.657,-1.6527,-1.6516,-1.6484,-1.6411,-1.6399,-1.6457,-1.6339,-1.6321,-1.624,-1.621,-1.6249,-1.6243,-1.6024,-1.6021,-1.6018,-1.6027,0,0,0,0,0,0,-1.6789,-1.6765,-1.6738,-1.666,-1.6633,-1.6519,-1.6525,-1.6512,-1.6472,-1.6471,-1.6389,-1.6377,-1.6339,-1.6251,-1.6233,-1.62,-1.6237,-1.6026,-1.6022,-1.6019,-1.6029,-1.6025,-1.6022,0,0,0,0,0,-1.6798,-1.6747,-1.6737,-1.6717,-1.6599,-1.6518,-1.6502,-1.6461,-1.647,-1.6441,-1.6394,-1.6379,-1.6217,-1.6243,-1.6222,-1.6187,-1.6028,-1.6023,-1.6019,-1.6031,-1.6026,-1.6022,0,0,0,0,0,0,-1.6822,-1.6736,-1.6724,-1.6647,-1.659,-1.6512,-1.6475,-1.6458,-1.6397,-1.6397,-1.6348,-1.6329,-1.6251,-1.6211,-1.6242,-1.6109,-1.6122,-1.6113,-1.6138,-1.6132,-1.6129,-1.6138,-1.6231,0,0,0,0,0,-1.6819,-1.6763,-1.6689,-1.6628,-1.66,-1.6542,-1.6506,-1.6479,-1.6417,-1.6393,-1.634,-1.6279,-1.6213,-1.6171,-1.6107,-1.6024,-1.6003,-1.5989,-1.5986,-1.5983,-1.5975,-1.5922,-1.5914,-1.6004,-1.6004,-1.6004,0,0,-1.6811,-1.6757,-1.6724,-1.6631,-1.6584,-1.6523,-1.6522,-1.646,-1.6413,-1.6383,-1.6302,-1.6261,-1.6189,-1.6105,-1.6066,-1.607,-1.5945,-1.5978,-1.5976,-1.5969,-1.5917,-1.5909,-1.5901,-1.6001,-1.6002,-1.6002,0,0,-1.6765,-1.672,-1.6662,-1.6614,-1.6543,-1.6504,-1.649,-1.6414,-1.6385,-1.6305,-1.6279,-1.6222,-1.6112,-1.606,-1.6019,-1.595,-1.5932,-1.5931,-1.5909,-1.5859,-1.5851,-1.5845,-1.5815,-1.5805,-1.5924,-1.5924,-1.5924,0,-1.6763,-1.6673,-1.6633,-1.657,-1.6528,-1.6499,-1.6437,-1.6392,-1.6303,-1.6273,-1.628,-1.6138,-1.6088,-1.5989,-1.5972,-1.5942,-1.592,-1.5938,-1.5856,-1.5849,-1.5842,-1.5813,-1.5803,-1.5924,-1.5924,-1.5924,-1.5924,0,-1.6672,-1.661,-1.6571,-1.6486,-1.6439,-1.6377,-1.6325,-1.6282,-1.6259,-1.6218,-1.6133,-1.6072,-1.5993,-1.5968,-1.5946,-1.5865,-1.5869,-1.5867,-1.5877,-1.5834,-1.5806,-1.5795,-1.5924,-1.5924,-1.5924,-1.5924,0,0,-1.6638,-1.653,-1.6516,-1.6474,-1.6392,-1.6342,-1.6277,-1.62,-1.6162,-1.6101,-1.6042,-1.5948,-1.5944,-1.5898,-1.5869,-1.5825,-1.5767,-1.5827,-1.5824,-1.5814,-1.5668,-1.5667,-1.5655,-1.5756,-1.5754,-1.5752,-1.5672,0,-1.6578,-1.6462,-1.6422,-1.6325,-1.6264,-1.6234,-1.6176,-1.6117,-1.6077,-1.6017,-1.5973,-1.5905,-1.5908,-1.5879,-1.5834,-1.5784,-1.5736,-1.5789,-1.5696,-1.5693,-1.5711,-1.5641,-1.5641,-1.5568,-1.5661,-1.5659,-1.5658,0,-1.6493,-1.643,-1.6327,-1.6248,-1.6221,-1.617,-1.6094,-1.6039,-1.597,-1.5944,-1.5891,-1.5864,-1.579,-1.5807,-1.5702,-1.5739,-1.5698,-1.5667,-1.5663,-1.565,-1.567,-1.5621,-1.5544,-1.5532,-1.5641,-1.5642,-1.5644,0,-1.6472,-1.6362,-1.6285,-1.6251,-1.6159,-1.6123,-1.6082,-1.6015,-1.597,-1.5903,-1.5873,-1.5798,-1.5756,-1.5698,-1.5649,-1.5667,-1.5546,-1.5561,-1.5518,-1.5519,-1.5491,-1.5493,-1.5402,-1.5473,-1.5473,-1.5473,-1.5473,0,-1.6407,-1.6344,-1.6274,-1.6226,-1.6152,-1.6106,-1.6033,-1.5991,-1.593,-1.5871,-1.5841,-1.5785,-1.5727,-1.5662,-1.5623,-1.5539,-1.5521,-1.5494,-1.5484,-1.5495,-1.5497,-1.5464,-1.5466,-1.547,-1.5471,-1.5471,-1.5472,0,-1.6371,-1.6322,-1.6235,-1.6154,-1.6132,-1.6081,-1.601,-1.596,-1.5918,-1.5842,-1.5822,-1.5755,-1.5677,-1.5624,-1.5524,-1.5498,-1.5404,-1.5397,-1.5427,-1.5421,-1.5379,-1.5382,-1.5261,-1.524,-1.5329,-1.5328,-1.5328,0,-1.6332,-1.6282,-1.6195,-1.6153,-1.6113,-1.6046,-1.6,-1.5951,-1.5904,-1.5819,-1.5778,-1.5698,-1.5631,-1.5506,-1.5447,-1.5368,-1.5356,-1.5319,-1.5344,-1.5354,-1.5349,-1.5351,-1.5343,-1.5314,-1.5313,-1.5313,-1.5312,0,-1.6264,-1.6241,-1.6177,-1.6102,-1.6047,-1.5986,-1.5924,-1.5891,-1.5831,-1.5778,-1.5698,-1.5646,-1.5542,-1.5461,-1.5377,-1.5331,-1.5309,-1.5305,-1.529,-1.5298,-1.5315,-1.53,-1.5411,-1.5308,-1.5308,-1.5308,-1.5309,-1.5309,-1.6221,-1.6174,-1.6104,-1.6031,-1.598,-1.5922,-1.5869,-1.582,-1.5753,-1.5666,-1.5641,-1.5556,-1.5483,-1.5367,-1.532,-1.525,-1.5253,-1.5233,-1.5226,-1.5221,-1.5218,-1.533,-1.5235,-1.5235,-1.5235,-1.5235,-1.5235,0,-1.6148,-1.6102,-1.6035,-1.5949,-1.589,-1.5878,-1.5808,-1.5758,-1.5684,-1.562,-1.5554,-1.5458,-1.5378,-1.5312,-1.5228,-1.5184,-1.5172,-1.5164,-1.5164,-1.5152,-1.5223,-1.5242,-1.5175,-1.5175,-1.5175,-1.5175,-1.5175,-1.5175,-1.6103,-1.602,-1.5989,-1.5878,-1.5831,-1.5748,-1.5708,-1.5652,-1.5599,-1.5495,-1.5428,-1.5386,-1.5319,-1.5229,-1.5153,-1.5135,-1.5103,-1.5096,-1.5076,-1.5142,-1.5148,-1.5155,-1.5172,-1.5091,-1.5091,-1.501,-1.5009,-1.5009]}]]